Regional Weather Roundup
Issued by NWS Grand Forks, ND

Home | Current Version | Previous Version | Text Only | Print | Product List | Glossary On
Versions: 1 2 3 4 5 6 7 8 9 10 11 12 13 14 15 16 17 18 19 20 21 22 23 24 25 26 27 28 29 30 31 32 33 34 35 36 37 38 39 40 41 42 43 44 45 46 47 48 49 50
000
ASUS43 KFGF 270931
RWRFGF
PRAIRIE TO PINES  WEATHER ROUNDUP
NATIONAL WEATHER SERVICE EASTERN NORTH DAKOTA/GRAND FORKS ND
300 AM CST THU NOV 27 2014

 **SATELLITE DATA USED TO AUGMENT SKY COVER AT AUTOMATED STATIONS**
 *****  WEATHER ACROSS EASTERN NORTH DAKOTA  *****

CITY           SKY/WX    TMP DP  RH WIND       PRES   REMARKS
GRAND FORKS    CLEAR    -14 -19  79 CALM      30.55F
GRAND FRKS AFB CLEAR    -15 -21  75 SW3       30.54F
GRAND FRKS NWS   N/A     -9 N/A N/A MISG        N/A
DEVILS LAKE    MOCLDY    -9 -22  54 SW3       30.43F
FARGO          CLEAR     -9 -17  68 CALM      30.56S
WAHPETON ARPT  MOSUNNY   -9 -17  70 NW5       30.55S WCI -21
$$

 ***** WEATHER ACROSS CENTRAL AND WESTERN NORTH DAKOTA  *****

CITY           SKY/WX    TMP DP  RH WIND       PRES   REMARKS
BISMARCK       CLOUDY   -10 -14  82 NE8       30.45S WCI -26
MINOT          CLOUDY   -11 -16  78 CALM      30.39S
JAMESTOWN      MOCLDY   -23 -28  78 CALM      30.48S
MINOT AFB      CLOUDY    -9 -15  77 SE3       30.38F
GARRISON         N/A      7   5  91 S10       30.37F WCI  -8
WILLISTON      PTCLDY     6   1  80 E3        30.28F
DICKINSON      PTCLDY    11   7  84 S15       30.24F WCI  -5
HETTINGER      CLOUDY    10   6  84 SE7       30.28F WCI  -1
$$

 *****  OTHER AIRPORT OBSERVATIONS IN OUR AREA  *****

CITY           SKY/WX    TMP DP  RH WIND       PRES   REMARKS
WALHALLA         N/A    -15 -18  84 S3        30.52F
GRAFTON AIRPOR FAIR     N/A N/A N/A SW3       30.54F
VALLEY CITY AR FAIR     -17 -20  83 CALM      30.50S
CANDO          FAIR     -17 -22  76 S3        30.45F
CAVALIER APRT  FAIR     -17 -20  83 CALM      30.53S
GWINNER        SUNNY    -15 -22  70 CALM      30.53S
SHEYENNE NWR     N/A    -19 -27  66 W2        29.95
ROLLA          FAIR     -15 -20  76 SW3       30.40F
 ***** THE ABOVE OBSERVATIONS ARE NON NWS ARE NOT QUALITY
       CONTROLLED AND MAY MIS-REPORT RAIN FOR SNOW...
$$

  *****  WEATHER ACROSS NORTHERN MINNESOTA  *****

CITY           SKY/WX    TMP DP  RH WIND       PRES   REMARKS
FLAG ISLAND    PTCLDY   -15 -18  84 NW7       30.48S WCI -31
WARROAD        PTCLDY   -13 -18  77 CALM      30.49F
ROSEAU         FAIR     -11 -17  77 W5        30.51S WCI -23
HALLOCK        PTCLDY   -15 -20  76 CALM      30.53F
THF RVR FALLS  PTCLDY   -11 -15  84 CALM      30.50F
BAUDETTE       PTCLDY   -12 -17  78 W5        30.47R WCI -24
WASKISH        MOCLDY    -9 -13  84 CALM      30.48R
CROOKSTON      PTCLDY   -11 -15  84 CALM      30.55F
STEPHEN NDAWN    N/A    -11 -17  77 S1          N/A
GREENBUSH NDAW   N/A    -15 -18  84 SW3         N/A
$$
  *****  WEATHER ACROSS CENTRAL AND WEST MINNESOTA  *****

CITY           SKY/WX    TMP DP  RH WIND       PRES   REMARKS
FOSSTON        PTCLDY   -18 -26  69 CALM      30.50F
BEMIDJI        PTCLDY   -14 -18  81 W3        30.46S
PARK RAPIDS    PTCLDY   -14 -18  82 W6        30.46R WCI -28
ELBOW LAKE     FAIR     -10 -13  83 W5        30.51R WCI -21
WADENA         CLEAR     -9 -13  84 NW6       30.46F WCI -23
DETROIT LAKES  PTCLDY    -9 -13  84 CALM      30.48F
MOORHEAD       CLEAR     -9 -13  84 CALM      30.55S
FERGUS FALLS   PTCLDY    -9 -17  70 CALM      30.55S
MORRIS MN      FAIR      -9 -15  77 NW5       30.50S WCI -21
STAPLES        PTCLDY    -8 -11  84 N6        30.47F WCI -21
$$
  *****  WEATHER ELSEWHERE ACROSS MINNESOTA  *****

CITY           SKY/WX    TMP DP  RH WIND       PRES   REMARKS
DULUTH         CLEAR     -6 -11  79 NW5       30.37R WCI -17
INTRNTL FALLS  PTCLDY   -16 -22  74 NW3       30.45R
ELY            CLEAR    -13 -17  84 CALM      30.38S
CLOQUET        CLEAR     -6  -9  84 NW7       30.40R WCI -20
WHEATON        MOCLDY    -9 -13  84 W3        30.57R
BRAINERD       CLEAR     -5  -9  83 NW6       30.47R WCI -18
HIBBING        CLEAR     -8 -14  74 NW9       30.41R WCI -25
ALEXANDRIA     CLEAR     -4  -9  79 N7        30.46F WCI -18
SAINT CLOUD    CLEAR     -1  -8  72 NW7       30.48R WCI -14
MINNEAPOLIS    CLEAR      4  -4  69 N14       30.46R WCI -14
$$

  *****  WEATHER ACROSS SOUTH DAKOTA  *****

CITY           SKY/WX    TMP DP  RH WIND       PRES   REMARKS
SIOUX FALLS    PTCLDY    -2  -8  76 N7        30.49F WCI -15
BROOKINGS      NOT AVBL
WATERTOWN      PTCLDY   -13 -17  82 NE3       30.46R
HURON          MOCLDY    -5 -10  79 NW3       30.53R
SISSETON         N/A    -10 -15  78 NW5       30.53R WCI -22
ABERDEEN       MOCLDY   -11 -17  75 CALM      30.53R
MITCHELL       CLOUDY     6  -2  69 N3        30.54R
PIERRE         CLOUDY     8   4  83 E8        30.42F WCI  -4
MOBRIDGE       MOCLDY     0  -5  79 E8        30.40F WCI -14
RAPID CITY     CLOUDY    21  19  92 SE7       30.23F WCI  12
$$

  *****  SOME WEATHER IN NEARBY STATES *****

CITY           SKY/WX    TMP DP  RH WIND       PRES   REMARKS
GLASGOW MT     CLOUDY    18  13  80 E15       30.15F WCI   4
GREAT FALLS MT CLOUDY    38  32  79 S9        29.92F
CHEYENNE WY    MOCLDY    43  24  47 W22G32    30.22S
SCOTTSBLUFF NE CLEAR     16  15  96 CALM      30.22F
OMAHA NE       PTCLDY    16  11  80 N8        30.52R WCI   5
DES MOINES IA  FLURRIES  18  12  77 NW12      30.45R WCI   5
DAVENPORT IA   MOCLDY    23  19  85 NW13      30.32R WCI  11
CHICAGO IL     CLOUDY    24  17  74 NW16      30.22R WCI  11
EAU CLAIRE WI  PTCLDY     8   0  69 NW12      30.38R WCI  -7
LA CROSSE WI   CLOUDY    20  13  74 N10       30.35S WCI   9
$$

  *****  SOME NATIONAL WEATHER *****

CITY           SKY/WX    TMP DP  RH WIND       PRES   REMARKS
LA GUARDIA NY  CLOUDY    36  30  79 NW12      29.92R
RALEIGH NC     MOCLDY    41  38  89 SE7       30.03F
ATLANTA GA     PTCLDY    44  24  45 W13G23    30.12R
NEW ORLEANS LA CLEAR     51  45  79 NW7       30.32R
OKLAHOMA CITY  PTCLDY    32  23  69 NW7       30.50R
ALBUQUERQUE NM CLEAR     37  22  54 CALM      30.44R
SALT LAKE CITY PTCLDY    43  28  55 SE13      30.32F
LOS ANGELES CA CLEAR     63  30  28 CALM      30.11F
BOISE ID       CLOUDY    45  37  73 CALM      30.16S
SEATTLE WA     CLOUDY    57  45  64 S14G23    29.87F
$$

*** WEATHER ACROSS MANITOBA...SASKATCHEWAN AND ONTARIO ***
                ***ONTARIO***

CITY           SKY/WX    TMP DP  RH WIND       PRES   REMARKS
GERALDTON      CLEAR    -20 -27  69 N3        30.32S
THUNDER BAY    CLEAR     -9 -13  84 W3        30.43S
SIOUX LOOKOUT  CLEAR    -13 -18  77 N3        30.41R
TORONTO        CLOUDY    30  19  64 N3        30.05F
BIG TROUT LK   CLEAR    -20 -26  76 W7        30.35S WCI -37
PICKLE LAKE    NOT AVBL
DRYDEN         CLEAR    -15 -18  84 NW7       30.40F WCI -31
KENORA         CLEAR    -13 -17  84 NW5       30.44R WCI -25
$$
                *** MANITOBA***

CITY           SKY/WX    TMP DP  RH WIND       PRES   REMARKS
BRANDON        CLEAR    -17 -22  76 SW3       30.43F
DAUPHIN        CLEAR     -6 -13  71 SW14      30.42F WCI -26
ISLAND LAKE    CLEAR    -17 -22  76 W5        30.38F WCI -29
PILOT MOUND      N/A    -18 -22  83 S5          N/A  WCI -31
THE PAS        CLEAR    -15 -20  76 SE5       30.33F WCI -27
THOMPSON       PTCLDY   -17 -22  76 S6        30.25  WCI -31
WINNIPEG       CLEAR    -15 -20  76 CALM      30.54F
LYNN LAKE      FLURRIES  -4  -8  84 W8        30.13S WCI -19
CHURCHILL      MOCLDY    -6 -11  77 W12G20    30.09S WCI -24
GILLAM         CLEAR    -17 -22  76 SW6       30.23F WCI -31
$$
                ***SASKATCHEWAN***

CITY           SKY/WX    TMP DP  RH WIND       PRES   REMARKS
ESTEVAN        MOCLDY   N/A N/A N/A E8          N/A
KINDERSLEY     CLOUDY    10   7  85 E9        30.08F WCI  -2
LLOYDMINSTER   CLOUDY    12  10  92 E7        30.08F WCI   2
PRINCE ALBERT  FLURRIES  -6  -9  84 E3        30.23F
REGINA         FLURRIES   7   3  85 SE14      30.26F WCI -10
YORKTON        CLEAR    -15 -20  76 S9        30.31F WCI -33
N. BATTLEFORD  CLOUDY     7   3  85 E12       30.16S WCI  -9
LA RONGE       FLURRIES   0  -4  85 N2        30.20S
SASKATOON      CLOUDY     7   3  85 S7        30.20F WCI  -5
SWIFT CURRENT  CLOUDY    21  19  93 SE12      30.07F WCI   9
$$
NOTE: THESE ARE AUTOMATED STATIONS WITH LIMITED QUALITY CONTROL
      "FAIR" INDICATES FEW OR NO CLOUDS BELOW 12,000 FEET WITH NO
      SIGNIFICANT WEATHER AND/OR OBSTRUCTIONS TO VISIBILITY.
      SKY/WX - SKY CONDITION AND SIGNIFICANT WEATHER.
      TMP - AIR TEMPERATURE.    DP   - DEWPOINT TEMPERATURE.
      RH  - RELATIVE HUMIDITY.  PRES - PRESSURE.
      HX  - HEAT INDEX.         WCI  - WIND CHILL INDEX.
$



USA.gov is the U.S. government's official web portal to all federal, state and local government web resources and services.